星链-11699 (STARLINK-11699)

导读 | 星芒AI

STARLINK-11699 是 SpaceX 星链计划中的一颗低轨通信卫星,属于第6批星链卫星(v1.5版本)。该卫星于2023年4月28日由猎鹰9号火箭从佛罗里达州肯尼迪航天中心发射升空。它运行在约540公里的近地轨道,用于提供全球高速互联网服务。星链计划旨在通过数千颗卫星构建覆盖全球的宽带网络,特别服务于偏远地区。STARLINK-11699 采用先进推进系统和激光通信技术,以提高网络性能和卫星自主管理能力。

基本信息
目录编号:
63762
目录名称:
STARLINK-11699
国际标识:
2025-089M
轨道中心:
EARTH
卫星名称:
星链-11699
卫星全名:
星链-11699 (STARLINK-11699)
卫星状态:
在轨 (已飞行188 天)
发射日期:
2025-04-29 UTC
国别 :
美国 (US)
星等 :
--
轨道信息
数据来源 国际轨道数据
星历时间: 2025-11-01T17:28:35+0800
1天前
查看轨道信息
半长轴: 6734.297km
偏心率: 0.0001923
轨道倾角: 43.000°
近地点辐角 253.031°
升交点赤经 345.956°
平近点角 107.034°
近地点: 354.866km
远地点: 357.458km
周期: 91.664分钟
每日圈数: 15.709574
详细信息
固有亮度:
5
最大亮度:
2.5
卫星平台:
Starlink V1.0
覆盖范围:
全球
运营商:
太空探索技术公司
运营商所在国:
美国
制造商(研发单位):
太空探索技术公司
制造商所在国:
美国
使用方式:
暂无
卫星简介
Starlink 计划是 SpaceX 推出的全球卫星互联网项目,通过发射低轨道卫星,为全球尤其是偏远地区提供高速、低延迟的互联网服务。自 2019 年起,Starlink 已部署数千颗卫星,旨在缩小全球数字鸿沟,推动互联网普及。该项目还为军事、航空等行业提供通信支持,带来广泛经济效益。
2D轨道图
3D轨道图
轨道高度分析图
轨道倾角分析图
轨道综合分析图
查看轨道综合分析图